Regional Weather Roundup
Issued by NWS

Home | Current Version | Previous Version | Text Only | Print | Product List | Glossary Off
Versions: 1 2 3 4 5 6 7 8 9 10 11 12 13 14 15 16 17 18 19 20 21 22 23 24 25 26 27 28 29 30 31 32 33 34 35 36 37 38 39 40 41 42 43 44 45 46 47 48 49 50

000
ASUS43 KDTX 281710
RWRMI
MICHIGAN HOURLY REGIONAL WEATHER ROUNDUP
NATIONAL WEATHER SERVICE DETROIT/PONTIAC MI
100 PM EDT THU JUL 28 2016

NOTE: "FAIR" INDICATES FEW OR NO CLOUDS BELOW 12,000 FEET WITH NO
SIGNIFICANT WEATHER AND/OR OBSTRUCTION TO VISIBILITY.

MIZ047>049-052>055-059>063-066>070-074>076-081>083-281800-
SOUTHEAST LOWER MICHIGAN

CITY           SKY/WX    TMP DP  RH WIND       PRES   REMARKS
ADRIAN         CLOUDY    82  65  56 E5        29.92S
ALMA           PTSUNNY   78  66  66 E5        29.96S
ANN ARBOR      CLOUDY    81  66  60 VRB6      29.92
BAD AXE        CLOUDY    78  60  53 NE8       29.96F
CARO           SUNNY     80  63  55 NE5       29.95S
DETROIT CITY   CLOUDY    80  67  64 E6        29.91F
DETROIT        CLOUDY    84  63  49 NE8       29.91F
FLINT          MOSUNNY   85  62  46 VRB7      29.93F
GROSSE ILE     CLOUDY    82  66  58 NE8       29.90S
HILLSDALE      CLOUDY    79  68  68 NE5       29.93S
HOWELL         PTSUNNY   79  61  54 NE8       29.94F

CITY           SKY/WX    TMP DP  RH WIND       PRES   REMARKS
JACKSON        CLOUDY    80  65  59 N6        29.93F
LAMBERTVILLE   CLOUDY    82  70  66 E5        29.91F
LANSING        PTSUNNY   80  64  58 E7        29.94F
LAPEER         FAIR      78  63  59 E5        29.94F
MASON          MOSUNNY   80  64  56 NE7       29.94S
MONROE         CLOUDY    81  71  72 E3        29.90F
PONTIAC        CLOUDY    80  62  54 NE9       29.93S
PORT HOPE        N/A     74  65  73 N7        29.95F
PORT HURON     CLOUDY    75  66  73 N6        29.94S
TRI CITIES     CLOUDY    78  62  57 NE10      29.96F
MIDLAND        FAIR      78  54  43 NE8       29.95F
TROY           CLOUDY    82  64  53 NE9       29.94S
SAGINAW HB     MOSUNNY   79  63  57 N12G17    29.94F
$$
MIZ043>046-050>051-056>058-064>065-071>073-077>080-281800-
SOUTHWEST LOWER MICHIGAN

CITY           SKY/WX    TMP DP  RH WIND       PRES   REMARKS
BATTLE CREEK   MOSUNNY   80  67  64 NE9       29.93F
BENTON HARBOR  CLOUDY    84  66  54 CALM      29.90S
BIG RAPIDS     SUNNY     76  65  68 E9        29.96S
COLDWATER      CLOUDY    79  69  73 NE8       29.92F
FREMONT        CLOUDY    77  71  84 E7        29.94F
HOLLAND        MOSUNNY   81  69  67 E8        29.92F
GRAND RAPIDS   PTSUNNY   80  67  64 E9        29.93F
IONIA          FAIR      78  65  65 NE10      29.93F
KALAMAZOO      MOSUNNY   82  65  56 VRB6      29.92F
LUDINGTON      CLOUDY    77  63  62 NE8       29.93F
MARSHALL       PTSUNNY   81  65  59 CALM      29.93S
MOUNT PLEASANT CLOUDY    78  60  52 NE8       29.96S
MUSKEGON       PTSUNNY   82  69  64 NE9       29.92S
SOUTH HAVEN    CLOUDY    82  66  57 E6        29.92S
$$
MIZ016>042-281800-
NORTHERN LOWER MICHIGAN

CITY           SKY/WX    TMP DP  RH WIND       PRES   REMARKS
ALPENA         MOSUNNY   76  60  57 N8        29.98F
BEAVER ISLAND  SUNNY     72  60  66 N6        30.01S
BELLAIRE       CLOUDY    72  58  62 CALM      29.99F
CADILLAC       CLOUDY    70  59  67 E5        29.98F
CHARLEVOIX     SUNNY     71  60  67 N9        30.02S
FRANKFORT      CLOUDY    70  60  71 NE3       29.98S
GAYLORD        CLOUDY    69  55  60 VRB6      30.01S
GRAYLING       MOSUNNY   74  58  56 NE6       30.00F
HARBOR SPRINGS SUNNY     73  62  68 SW6       29.99S
HOUGHTON LAKE  CLOUDY    72  59  63 NE6       30.00S
MANISTEE       CLOUDY    74  58  57 E10       29.96S
OSCODA         CLOUDY    70  62  75 NE8G16    29.96S
PELLSTON       SUNNY     77  58  51 NE8       29.99F
ROGERS CITY    SUNNY     69  61  75 N8        30.01S
TRAVERSE CITY  CLOUDY    72  57  59 N9        29.97F
$$
MIZ007>008-015-281800-
EASTERN UPPER MICHIGAN

CITY           SKY/WX    TMP DP  RH WIND       PRES   REMARKS
KINROSS        PTSUNNY   73  56  54 NE3       30.01F
MACKINAC ISLAN SUNNY     71  57  60 CALM      30.00F
NEWBERRY       SUNNY     75  54  46 NE6       30.02S
S. S. MARIE    SUNNY     78  54  43 VRB5      29.99F
MUNISING         N/A     70  61  73 NE21      30.04R
$$
MIZ004>006-011>014-085-281800-
CENTRAL UPPER MICHIGAN

CITY           SKY/WX    TMP DP  RH WIND       PRES   REMARKS
MANISTIQUE     PTSUNNY   75  63  64 NE7       30.01S
ESCANABA       SUNNY     73  61  64 NE7       30.00F
MENOMINEE      CLOUDY   N/A N/A N/A NE6       30.02S
SAWYER-GWINN   SUNNY     68  57  68 N15       30.06S
$$
MIZ001>003-009>011-084-281800-
WESTERN UPPER MICHIGAN

CITY           SKY/WX    TMP DP  RH WIND       PRES   REMARKS
IRON MOUNTAIN  MOSUNNY   76  57  51 NE10G17   30.02F
HOUGHTON       MOSUNNY   71  54  54 E9        30.09S
COPPER HARBOR    N/A     64  56  75 VRB5      30.11R
IRONWOOD       MOSUNNY   72  55  56 NE9       30.04S
$$

ABBREVIATIONS USED IN REMARKS
   TC - TEMPERATURE IN CELSIUS
  WCI - WIND CHILL INDEX
   HX - HEAT INDEX
  VSB - VISIBILITY




USA.gov is the U.S. government's official web portal to all federal, state and local government web resources and services.